Preview of NWS' New Version of Forecast
This preview is not operational and should not be used for support decisions.

Regional Weather Roundup (RWR)

Issued by National Weather Service (NWS)

                            
000
ASUS45 KCYS 240210
RWRWY 

WYOMING REGIONAL WEATHER ROUNDUP
NATIONAL WEATHER SERVICE CHEYENNE WY
800 PM MDT SUN JUN 23 2019

NOTE:  "FAIR" INDICATES FEW OR NO CLOUDS BELOW 12,000 FEET
WITH NO SIGNIFICANT WEATHER AND/OR OBSTRUCTIONS TO VISIBILITY.

WYZ001-240300-
YELLOWSTONE NATIONAL PARK
  
CITY           SKY/WX    TMP DP  RH WIND       PRES   REMARKS
LK YELLOWSTONE   N/A     46  37  71 CALM      30.09F                  
W YELLOWSTONE  NOT AVBL                                               

$$
WYZ002>013-054>058-071-098>099-240300-
NORTHERN WYOMING
  
CITY           SKY/WX    TMP DP  RH WIND       PRES   REMARKS
JACKSON        CLOUDY    58  38  47 SW8       30.03S                  
CODY           MOCLDY    63  37  38 SW9       29.95S                  
GREYBULL       FAIR      71  36  27 CALM      29.87S                  
WORLAND        FAIR      67  39  35 N6        29.89R                  
SHERIDAN       FAIR      57  48  72 SW7       29.89S                  
BUFFALO        FAIR      57  47  69 CALM      29.95R                  
GILLETTE       FAIR      61  44  53 CALM      29.89R                  
HULETT         FAIR      64  46  52 CALM      29.90                   
NEWCASTLE      MOCLDY    59  43  55 SE5       29.91                   

$$
WYZ014>020-022>026-101>103-240300-
CENTRAL WYOMING
  
CITY           SKY/WX    TMP DP  RH WIND       PRES   REMARKS
BIG PINEY      CLOUDY    56  36  47 W9        30.11S                  
PINEDALE       CLOUDY    55  32  41 N6        30.11                   
DUBOIS         CLOUDY    52  32  46 NW8       30.06                   
LANDER         CLOUDY    62  38  40 CALM      29.97S                  
RIVERTON       CLOUDY    64  35  34 NW13      29.98R                  
CASPER         FAIR      63  45  51 W3        29.94S                  
DOUGLAS        FAIR      63  45  51 S7        29.93S                  

$$
WYZ021-027>030-104>119-240300-
SOUTHERN WYOMING
  
CITY           SKY/WX    TMP DP  RH WIND       PRES   REMARKS
EVANSTON       FAIR      59  30  33 SW14      30.14F                  
KEMMERER       FAIR      55  30  38 W14G21    30.13                   
ROCK SPRINGS   CLOUDY    61  27  27 W21G29    30.09R                  
DIXON          CLOUDY    57  37  47 S18       30.12F                  
RAWLINS        FAIR      60  31  33 W16G25    30.06S                  
SARATOGA       MOCLDY    54  37  54 SW13      30.10S                  
LARAMIE        FAIR      50  37  61 SW10      30.08R                  
CHEYENNE       MOCLDY    57  39  51 N12       30.04S                  
TORRINGTON     LGT RAIN  59  47  64 W16G23    29.95R                  
PINE BLUFFS    MOCLDY    59  43  55 N6        30.00F                  

$$
  

000
ASUS45 KCYS 240210
RWRWY 

WYOMING REGIONAL WEATHER ROUNDUP
NATIONAL WEATHER SERVICE CHEYENNE WY
800 PM MDT SUN JUN 23 2019

NOTE:  "FAIR" INDICATES FEW OR NO CLOUDS BELOW 12,000 FEET
WITH NO SIGNIFICANT WEATHER AND/OR OBSTRUCTIONS TO VISIBILITY.

WYZ001-240300-
...YELLOWSTONE NATIONAL PARK...
  
CITY           SKY/WX    TMP DP  RH WIND       PRES   REMARKS
LK YELLOWSTONE   N/A     46  37  71 CALM      30.09F                  
W YELLOWSTONE  NOT AVBL                                               

$$
WYZ002>013-054>058-071-098>099-240300-
...NORTHERN WYOMING...
  
CITY           SKY/WX    TMP DP  RH WIND       PRES   REMARKS
JACKSON        CLOUDY    58  38  47 SW8       30.03S                  
CODY           CLOUDY    63  37  38 SW9       29.95S                  
GREYBULL       MOCLDY    71  36  27 CALM      29.87S                  
WORLAND        MOCLDY    67  39  35 N6        29.89R                  
SHERIDAN       PTCLDY    57  48  72 SW7       29.89S                  
BUFFALO        PTCLDY    57  47  69 CALM      29.95R                  
GILLETTE       PTCLDY    61  44  53 CALM      29.89R                  
HULETT         FAIR      64  46  52 CALM      29.90S                  
NEWCASTLE      MOCLDY    59  43  55 SE5       29.91F                  

$$
WYZ014>020-022>026-101>103-240300-
...CENTRAL WYOMING...
  
CITY           SKY/WX    TMP DP  RH WIND       PRES   REMARKS
BIG PINEY      CLOUDY    56  36  47 W9        30.11S                  
PINEDALE       CLOUDY    55  32  41 N6        30.11S                  
DUBOIS         CLOUDY    52  32  46 NW8       30.06S                  
LANDER         CLOUDY    62  38  40 CALM      29.97S                  
RIVERTON       CLOUDY    64  35  34 NW13      29.98R                  
CASPER         MOCLDY    63  45  51 W3        29.94S                  
DOUGLAS        PTCLDY    63  45  51 S7        29.93S                  

$$
WYZ021-027>030-104>119-240300-
...SOUTHERN WYOMING...
  
CITY           SKY/WX    TMP DP  RH WIND       PRES   REMARKS
EVANSTON       CLEAR     59  30  33 SW14      30.14F                  
KEMMERER       CLEAR     57  30  35 W13       30.13S                  
FORT BRIDGER   NOT AVBL                                               
ROCK SPRINGS   CLOUDY    61  27  27 W21G29    30.09R                  
DIXON          CLOUDY    57  37  47 S18       30.12F                  
RAWLINS        MOCLDY    60  31  33 W16G25    30.06S                  
SARATOGA       MOCLDY    54  37  54 SW13      30.10S                  
LARAMIE        MOCLDY    50  37  61 SW10      30.08R                  
CHEYENNE       MOCLDY    57  39  51 N12       30.04S                  
TORRINGTON     LGT RAIN  59  47  64 W16G23    29.95R                  
PINE BLUFFS    MOCLDY    59  43  55 N6        30.00F                  

$$